MOONLIGHTER

导读

MOONLIGHTER(月光猎手)是美国研发的3U立方卫星,又称“黑客沙箱卫星”,由美国 Aerospace Corporation、空军研究实验室和太空系统司令部联合开发。它于2023年6月5日随SpaceX CRS-28任务发射入轨,是全球首个太空在轨网络安全测试平台,开放给全球安全团队开展卫星攻防演练,用于探索太空系统的网络防御技术,支撑太空网络安全研究与战术验证。 *注:公开可查的MOONLIGHTER卫星实际发射时间为2023年,未检索到1998年11月20日美国发射同名卫星的权威信息,以上基于现有公开资料整理。*

基本信息
目录编号:
57316
目录名称:
MOONLIGHTER
国际标识:
1998-067VU
轨道中心:
EARTH
卫星名称:
MOONLIGHTER
卫星全名:
--
卫星状态:
已陨落 最后检测时间 2024-02-10
发射日期:
1998-11-20 UTC
国别 :
美国 (US)
星等 :
--
轨道信息
数据来源 国际轨道数据
星历时间: 2024-02-08T03:19:58+0800
轨道信息已过期887天
半长轴: 6545.164km
偏心率: 0.0008438
轨道倾角: 51.617°
近地点辐角 290.667°
升交点赤经 215.962°
平近点角 69.346°
近地点: 161.506km
远地点: 172.552km
周期: 87.830分钟
每日圈数: 16.395399
详细信息
使用方式:
暂无